Regional Weather Roundup
Issued by NWS Upton, NY

Current Version | Previous Version | Text Only | Print | Product List | Glossary On
Versions: 1 2 3 4 5 6 7 8 9 10 11 12 13 14 15 16 17 18 19 20 21 22 23 24 25 26 27 28 29 30 31 32 33 34 35 36 37 38 39 40 41 42 43 44 45 46 47 48 49 50
000
ASUS41 KOKX 030708
RWROKX

REGIONAL WEATHER ROUNDUP
NATIONAL WEATHER SERVICE NEW YORK NY
300 AM EDT SUN MAY 03 2015

NOTE: "FAIR" INDICATES FEW OR NO CLOUDS BELOW 12,000 FEET WITH NO
SIGNIFICANT WEATHER AND/OR OBSTRUCTIONS TO VISIBILITY.

NYZ071-072-176-178-NJZ106-104-030800-
NEW YORK CITY METRO AREA


CITY           SKY/WX    TMP DP  RH WIND       PRES   REMARKS
CENTRAL PARK   CLEAR     52  35  52 W3        30.06S
LAGUARDIA APRT PTCLDY    52  35  52 S6        30.04S
KENNEDY INTL   PTCLDY    48  40  73 SW6       30.05F
NEWARK/LIBERTY PTCLDY    49  37  63 S3        30.04S
BRNX BOT. GARD   N/A     48  36  61 SW3       30.03F
TETERBORO      CLEAR     50  38  63 CALM      30.03S
$$

NYZ177-179-078>081-030800-
LONG ISLAND NEW YORK

CITY           SKY/WX    TMP DP  RH WIND       PRES   REMARKS
FARMINGDALE    CLEAR     47  41  80 SW5       30.05S
ISLIP          CLEAR     45  39  79 CALM      30.03S
SHIRLEY        MOCLDY    44  40  85 CALM      30.06R
WESTHAMPTON    CLEAR     32  28  85 NW3       30.07R
MONTAUK POINT    N/A     47  42  83 CALM      30.05F
$$

NYZ052-065-067-030800-
HUDSON VALLEY

CITY           SKY/WX    TMP DP  RH WIND       PRES   REMARKS
WHITE PLAINS   CLEAR     44  37  76 CALM      30.03S
NEWBURGH       CLEAR     46  41  81 CALM      30.03R
MONTGOMERY     CLEAR     43  40  89 S3        30.01F
POUGHKEEPSIE   CLEAR     47  39  74 CALM      30.02R
ALBANY         PTCLDY    51  37  58 CALM      29.99R
$$

NJZ001-105-106-008-010-013-015-019>022-104-030800-
NEW JERSEY

CITY           SKY/WX    TMP DP  RH WIND       PRES   REMARKS
NEWARK/LIBERTY PTCLDY    49  37  63 S3        30.04S
TETERBORO      CLEAR     50  38  63 CALM      30.03S
CALDWELL       CLEAR     44  39  82 CALM      30.04F
MORRISTOWN     CLEAR     41  37  87 CALM      30.04F
SOMERVILLE     CLEAR     45  39  79 CALM      30.03S
SUSSEX         PTCLDY    45  40  82 CALM      30.04S
ANDOVER          N/A     47  42  83 CALM      30.03S
TRENTON        CLOUDY    48  38  68 CALM      30.04S
MILLVILLE      MOCLDY    50  45  83 CALM      30.03S
ATLANTIC CITY  PTCLDY    49  40  71 SE5       30.04S
WRIGHTSTOWN    CLOUDY    44  40  87 E2        30.02S
TOMS RIVER     CLOUDY    39  34  81 CALM      30.05F
BELMAR         MOCLDY    46  36  66 CALM      30.05S
$$

PAZ047>061-062-071-030800-
EASTERN PENNSYLVANIA

CITY           SKY/WX    TMP DP  RH WIND       PRES   REMARKS
PHILADELPHIA   MOCLDY    51  43  74 E5        30.04S
ALLENTOWN      PTCLDY    50  44  80 NE5       30.03S
SCRANTON       CLEAR     50  31  48 E7        30.03R
$$

CTZ002-004>006-009-010-012-RIZ004-006-007-MAZ004-011-015-030800-
SOUTHERN NEW ENGLAND
 IN CT

CITY           SKY/WX    TMP DP  RH WIND       PRES   REMARKS
BRADLEY INTL   MOCLDY    50  38  63 S7        29.99F
HARTFORD       PTCLDY    46  38  73 S6        30.02S
DANBURY        CLEAR     42  35  76 CALM      30.04F
WTRBRY/OXFORD  NOT AVBL
BRIDGEPORT     FAIR      49  42  77 SW5       30.04F
MERIDEN        PTCLDY    42  37  82 S3        30.03S
NEW HAVEN      CLEAR     48  40  73 SW5       30.04S
CHESTER        FAIR      45  37  76 W5        30.03S
GROTON         PTCLDY    44  41  89 S5        30.03F
WILLIMANTIC    CLOUDY    43  38  82 CALM      30.02F

 IN RI

CITY           SKY/WX    TMP DP  RH WIND       PRES   REMARKS
PROVIDENCE     MOCLDY    43  37  79 S5        30.03S
BLOCK ISLAND   CLOUDY    45  37  76 W7        30.04S
WESTERLY       MOCLDY    43  39  86 CALM      30.04F

 IN MA

CITY           SKY/WX    TMP DP  RH WIND       PRES   REMARKS
BOSTON         MOCLDY    46  40  79 S5        30.01S
WORCESTER      PTCLDY    47  37  68 SW10      29.99S
WESTFIELD      CLOUDY    49  39  68 S5        29.99S
PROVINCETOWN   CLOUDY    41  39  93 S6        30.04S VSB 3/4
NANTUCKET      CLEAR     39  35  86 W6        30.04S WCI  35
$$

ANZ330-335-338-340-345-350-353-355-030800-
COASTAL MARINE OBSERVATIONS


STATION/POSITION TIME  SKY/WX   TEMP    WIND        PRES    VSBY  WAVE
                                AIR SEA DIR/SP/G                  HT/PER
                 (UTC)          (F)     (DEG/KT/KT) (MB)    (MI)  (FT/S)
NY HARB ENTRANCE 0650            50 50  210/  8/ 10 1017.2          5/ 9
4S FIRE IS       0603               47                N/A           5/ 8
20S FIRE ISLAND  0650            46 46  270/  2/  4 1018.1          5/ 8
GREAT SOUTH BAY  0600            50 56  270/  8/ 10   N/A
23SW MTP         0650            44 44  250/  2/  2 1017.4          5/ 8
HUDSON CANYON    NOT AVBL
EXECUTION ROCKS  NOT AVBL
WESTERN LI SOUND NOT AVBL
CENTRAL LI SOUND NOT AVBL
EASTERN LI SOUND 0600            45     250/  4/  6   N/A
ROBBINS REEF     0612            51     210/  6/  7 1016.2
$$


>>>>>>>>>>>>>>>>>>>>>>>>>>>> KEY <<<<<<<<<<<<<<<<<<<<<<<<<<<
>                                                          <
>     SKY/WX - SKY CONDITION/PRESENT WEATHER               <
>     TMP    - TEMPERATURE IN FAHRENHEIT                   <
>     DP     - DEWPOINT IN FAHRENHEIT                      <
>     RH     - RELATIVE HUMIDITY IN PERCENT                <
>     WIND   - DIRECTION AND SPEED IN MPH                  <
>     PRES   - MEAN SEA LEVEL PRESSURE IN INCHES OF HG     <
>     WCI    - WIND CHILL INDEX                            <
>     VSB    - VISIBILITY IN MILES                         <
>     HX     - HEAT INDEX                                  <
>     TC     - TEMPERATURE IN CELSIUS                      <
>     VRB    - VARIABLE WIND DIRECTION                     <
>                                                          <
>>>>>>>>>>>>>>>>>>>>>>>>>>>> KEY <<<<<<<<<<<<<<<<<<<<<<<<<<<





USA.gov is the U.S. government's official web portal to all federal, state and local government web resources and services.